Вернуться в каталог

STARLINK-34855

АктивенСвязьVLEO
NORAD 65416·PAYLOAD·🇺🇸 United States

Запущен Aug 31, 2025 с Cape Canaveral Space Force Station

Loading…

Ближайшие Пролёты (ближайшие 24 часа)

TLE

СвежийSource: CelesTrak SupGP

Эпоха: Sep 14, 2026, 22:34 UTC

1 65416C 25192N   26257.94076389  .00040421  00000+0  12998-2 0  2577
2 65416  53.1574  72.7333 0001263  90.2407  44.2497 15.31681397    13

Отслеживайте STARLINK-34855 в реальном времени с AllMySat

Download on the App Store